ERTS 1

operational
NORAD ID: 6126 Int'l Des: 1972-058 Owner: GSFC Country: US
LEOCIRCULARRETROGRADESSO

About ERTS 1

Description loading...

Live Position

Loading 3D Globe...

Upcoming Passes

Altitude History

Altitude vs Time

uPlot chart will show altitude changes over time

Two-Line Element Set

1 06126U 72058A 26062.59796133 -.00000172 00000-0 -88864-4 0 9996
2 06126 99.3495 90.5137 0007968 177.8589 182.2609 13.97829658733207
Epoch: Mar 3, 2026 • Age: 42 hours

Current Status

Altitude 918.6 km
Velocity 7.39 km/s
Sub-Earth Point -32.43°S, 29.94°E
Type other

Large Constellations

Loading constellations...